Regional Weather Roundup
Issued by NWS Midland/Odessa, TX

Home | Current Version | Previous Version | Text Only | Print | Product List | Glossary On
Versions: 1 2 3 4 5 6 7 8 9 10 11 12 13 14 15 16 17 18 19 20 21 22 23 24 25 26 27 28 29 30 31 32 33 34 35 36 37 38 39 40 41 42 43 44 45 46 47 48 49 50
000
ASUS44 KMAF 310910
RWRMAF
MIDLAND AREA WEATHER ROUNDUP
NATIONAL WEATHER SERVICE MIDLAND TX
400 AM CDT SUN AUG 31 2014

...IN SOUTHWEST TEXAS AND SOUTHEAST NEW MEXICO...

CITY           SKY/WX    TMP DP  RH WIND       PRES   REMARKS
ALPINE         CLEAR     74  57  55 SW3       30.15S
ANDREWS        FAIR      76  61  58 S8        30.00R
ARTESIA        NOT AVBL
BIG SPRING     CLEAR     77  64  64 SE12      29.99S
CARLSBAD       CLEAR     76  56  49 S8        29.97F
DRYDEN           N/A     83  65  54 SE9       29.95S
FORT STOCKTON  CLEAR     76  61  59 S12       29.98F
GUAD PASS      CLEAR     74  48  39 CALM      30.15R
HOBBS          CLEAR     75  59  57 S13       30.02S
MARFA          CLEAR     63  54  72 N3        30.15S
MIDLAND AIRPK  NOT AVBL
MIDLAND INTL   CLEAR     78  63  59 S13       29.98F
ODESSA         CLEAR     78  62  57 S17       29.99F
PECOS          CLEAR     74  61  64 E7        29.95S
PRESIDIO       FAIR      83  58  42 NE8       29.97S
SEMINOLE       CLEAR     75  60  57 S8        30.00F
SNYDER         CLEAR     73  65  76 S8        29.97S
WINK           CLEAR     79  62  56 SE10      29.96S
$$
...OTHER STATIONS IN TEXAS...

CITY           SKY/WX    TMP DP  RH WIND       PRES   REMARKS
ABILENE        CLEAR     76  66  71 S7        29.95S
AMARILLO       CLEAR     73  55  53 S17       29.97S
AUSTIN         PTCLDY    74  71  91 S3        29.95F
BROWNSVILLE    MOCLDY    79  79 100 CALM      29.91S
CORPUS CHRISTI PTCLDY    78  76  93 CALM      29.92F
DALLAS FTW     CLEAR     77  70  79 SE7       29.92S
DEL RIO        CLEAR     82  69  64 SE7       29.92F
EL PASO        CLEAR     77  47  34 W7        30.00R
HOUSTON INT    PTCLDY    75  73  94 CALM      29.95F
LUBBOCK        PTCLDY    75  61  61 S15       29.98F
SAN ANGELO     CLEAR     72  66  81 SW6       29.96S
SAN ANTONIO    PTCLDY    78  72  81 S7        29.96F
WACO           CLEAR     78  72  81 S14       29.94F
WICHITA FALLS  NOT AVBL
$$
...OTHER LOCATIONS IN NEW MEXICO...

CITY           SKY/WX    TMP DP  RH WIND       PRES   REMARKS
ALAMAGORDO     CLEAR     70  41  35 S9        30.01S
ALBUQUERQUE    PTCLDY    70  42  36 SE9       30.07R
CANNON AFB     CLEAR     70  53  55 S8        30.04S
CLOVIS           N/A     64  48  55 S7        30.06S
HOLLOMAN AFB   CLEAR     74  42  31 S7        29.99S
ROSWELL        CLEAR     69  50  50 S7        29.99S
RUIDOSO        CLEAR     64  37  36 W8        30.22S
SANTA FE       CLEAR     60  41  49 W3        30.11S
TRUTH OR CONSE CLEAR     72  43  35 W5        30.06R
TUCUMCARI      CLEAR     76  46  34 S23G30    29.96F
$$


USA.gov is the U.S. government's official web portal to all federal, state and local government web resources and services.